sat.trackr.live / text

‹ back to catalog

KUIPER-00021

NORAD 63736 · 2025-088N

PAYLOAD ACTIVE UNKNOWN

§ Identity

Operator
Country
US
Launch date
2025-04-28
Launch site
AFETR
Launch vehicle
Mass (kg)
RCS (m²)

External: N2YO · Heavens-Above · Gunter

§ Orbital elements

Epoch: 2026-05-25T04:44:15.474048Z

Period
97.30 min
Inclination
51.8996°
Eccentricity
0.0001299
Mean motion
14.79935354 rev/d
Perigee alt
628.6 km
Apogee alt
630.4 km
Semi-major
7,007.7 km
B*
1.9234e-4
RAAN
124.7416°
Arg perigee
75.5530°
Mean anomaly
284.5576°
Rev number
5,882

§ Raw data

KUIPER-000211 63736U 25088N   26145.19740132  .00001245  00000+0  19234-3 0  99962 63736  51.8996 124.7416 0001299  75.5530 284.5576 14.79935354 58826

JSON: /api/v1/satellites/63736 · /tle

For live sub-satellite position, see the globe view (requires WebGL).

§ Visibility from observer

Set your observer location to see the next 7 days of passes ≥ 10°. The values pass through the URL so the page stays shareable.

No JS? Fill the form by hand. The geolocation button needs JavaScript.